Starlink 3240

operational
NORAD ID: 49728 Int'l Des: 2021-115 Owner: SPXS Country: US Constellation: starlink
LEOCIRCULAR

About Starlink 3240

Description loading...

Live Position

Loading 3D Globe...

Upcoming Passes

Altitude History

Altitude vs Time

uPlot chart will show altitude changes over time

Two-Line Element Set

1 49728U 21115E 25350.23747709 -.00002733 00000-0 -15366-3 0 9995
2 49728 53.2162 173.7523 0001334 98.2271 261.8873 15.08849504222790
Epoch: Dec 16, 2025 • Age: 22 hours

Current Status

Altitude 559.1 km
Velocity 7.58 km/s
Sub-Earth Point -53.02°S, 51.04°W
Launch Date Dec 2, 2021
Age 4 years
Type internet

Technical Details

Classification Payload
Mass 290.00 kg
Dry Mass 270.00 kg
Total Mass 290.00 kg
Length 0.20 m
Diameter 2.80 m
Span 9.00 m
Shape Box + pan
Manufacturer SPXS
Bus Type Starlink
Phase Status In Orbit
Owner/State SPXS/US

Large Constellations

Loading constellations...